sat.trackr.live / text

‹ back to catalog

STARLINK-31266

NORAD 59087 · 2024-041P

PAYLOAD ACTIVE UNKNOWN

§ Identity

Operator
Country
US
Launch date
2024-02-29
Launch site
AFETR
Launch vehicle
Mass (kg)
RCS (m²)

Purposes: comms

External: N2YO · Heavens-Above · Gunter

§ Orbital elements

Epoch: 2026-05-24T17:39:30.735360Z

Period
94.27 min
Inclination
43.0002°
Eccentricity
0.0001551
Mean motion
15.27588960 rev/d
Perigee alt
482.0 km
Apogee alt
484.1 km
Semi-major
6,861.2 km
B*
1.1520e-4
RAAN
241.0796°
Arg perigee
266.4500°
Mean anomaly
93.6174°
Rev number
12,595

§ Raw data

STARLINK-312661 59087U 24041P   26144.73577240  .00002910  00000+0  11520-3 0  99952 59087  43.0002 241.0796 0001551 266.4500  93.6174 15.27588960125957

JSON: /api/v1/satellites/59087 · /tle

For live sub-satellite position, see the globe view (requires WebGL).

§ Visibility from observer

Set your observer location to see the next 7 days of passes ≥ 10°. The values pass through the URL so the page stays shareable.

No JS? Fill the form by hand. The geolocation button needs JavaScript.